Key West, FL

3:47 AM EDT on August 29, 2016 (GMT -0400)
Key West International

Weather History for KEYW - May, 2012

Change the Weather History Date:

Thursday, May 24, 2012

  Actual Average Record
Temperature  
Mean Temperature 82 °F 81 °F  
Max Temperature 85 °F 86 °F 92 °F (1873)
Min Temperature 78 °F 77 °F 68 °F (1900)
Degree Days  
Heating Degree Days 0 0  
Month to date heating degree days 0 0  
Since 1 July heating degree days 28 73  
Cooling Degree Days 17 16  
Month to date cooling degree days 364 358  
Year to date cooling degree days 1568 1312  
Growing Degree Days 31 (Base 50)    
Moisture  
Dew Point 74 °F    
Average Humidity 78    
Maximum Humidity 85    
Minimum Humidity 70    
Precipitation  
Precipitation 0.01 in 0.12 in 3.15 in (1937)
Month to date precipitation 4.03 2.04  
Year to date precipitation 16.35 9.67  
Snow  
Snow 0.00 in - - ()
Month to date snowfall 0.0  
Since 1 July snowfall 0.0  
Snow Depth 0.00 in    
Sea Level Pressure  
Sea Level Pressure 29.84 in    
Wind  
Wind Speed 8 mph (NNE)    
Max Wind Speed 17 mph    
Max Gust Speed 22 mph    
Visibility 10 miles    
Events Rain    
T = Trace of Precipitation, MM = Missing Value Source: NWS Daily Summary

Daily Weather History Graph

Daily Weather History Graph

Search for Another Location

Airport or City:

Trip Planner

Search our weather history database for the weather conditions in past years. The results will help you decide how hot, cold, wet, or windy it might be!

Date:

Astronomy

May. 24, 2012 Rise Set
Actual Time 6:39 AM EDT 8:08 PM EDT
Civil Twilight 6:14 AM EDT 8:33 PM EDT
Nautical Twilight 5:44 AM EDT 9:03 PM EDT
Astronomical Twilight 5:13 AM EDT 9:34 PM EDT
Moon 9:35 AM EDT (5/24) 11:13 PM EDT (5/24)
Length of Visible Light 14h 18m
Length of Day
13h 28m
Waxing Crescent, 12% of the Moon is Illuminated
May 24
Waxing Crescent
May 28
First Quarter
Jun 4
Full
Jun 11
Last Quarter
Jun 19
New

Hourly Weather History & Observations

Time (EDT) Temp. Heat Index Dew Point Humidity Pressure Visibility Wind Dir Wind Speed Gust Speed Precip Events Conditions
12:53 AM 79.0 °F - 72.0 °F 79% 29.86 in 10.0 mi ESE 12.7 mph - N/A   Partly Cloudy
1:53 AM 80.1 °F 84.2 °F 73.0 °F 79% 29.85 in 10.0 mi East 10.4 mph - N/A   Scattered Clouds
2:41 AM 78.8 °F - 73.4 °F 83% 29.83 in 9.0 mi ESE 16.1 mph - 0.01 in Rain Rain
2:49 AM 78.8 °F - 73.4 °F 83% 29.82 in 10.0 mi ESE 12.7 mph - 0.01 in Rain Light Rain
2:53 AM 79.0 °F - 73.9 °F 84% 29.82 in 10.0 mi ESE 16.1 mph - 0.01 in   Mostly Cloudy
3:04 AM 78.8 °F - 73.4 °F 83% 29.82 in 10.0 mi ESE 15.0 mph - N/A   Scattered Clouds
3:40 AM 78.8 °F - 73.4 °F 83% 29.81 in 10.0 mi East 12.7 mph - N/A   Mostly Cloudy
3:53 AM 79.0 °F - 73.0 °F 82% 29.81 in 10.0 mi ESE 12.7 mph 21.9 mph N/A   Mostly Cloudy
4:07 AM 78.8 °F - 73.4 °F 83% 29.80 in 10.0 mi ESE 13.8 mph - N/A   Scattered Clouds
4:53 AM 79.0 °F - 73.0 °F 82% 29.80 in 10.0 mi East 6.9 mph - N/A   Clear
5:53 AM 79.0 °F - 73.0 °F 82% 29.80 in 10.0 mi East 6.9 mph - N/A   Scattered Clouds
6:53 AM 79.0 °F - 73.0 °F 82% 29.80 in 10.0 mi NE 6.9 mph - N/A   Partly Cloudy
7:53 AM 80.1 °F 84.2 °F 73.0 °F 79% 29.81 in 10.0 mi NE 4.6 mph - N/A   Partly Cloudy
8:53 AM 82.0 °F 87.9 °F 73.9 °F 76% 29.81 in 10.0 mi North 8.1 mph - N/A   Scattered Clouds
9:53 AM 82.0 °F 87.9 °F 73.9 °F 76% 29.83 in 10.0 mi NNE 13.8 mph - N/A   Partly Cloudy
10:53 AM 82.9 °F 89.4 °F 73.9 °F 74% 29.84 in 10.0 mi North 12.7 mph - N/A   Partly Cloudy
11:53 AM 82.9 °F 89.4 °F 73.9 °F 74% 29.85 in 10.0 mi North 10.4 mph 18.4 mph N/A   Partly Cloudy
12:53 PM 84.0 °F 91.2 °F 73.9 °F 72% 29.86 in 10.0 mi North 12.7 mph - N/A   Clear
1:53 PM 84.0 °F 91.2 °F 73.9 °F 72% 29.86 in 10.0 mi North 13.8 mph 18.4 mph N/A   Partly Cloudy
2:53 PM 84.9 °F 92.1 °F 73.9 °F 69% 29.86 in 10.0 mi North 10.4 mph - N/A   Partly Cloudy
3:53 PM 84.0 °F 91.9 °F 75.0 °F 74% 29.86 in 10.0 mi NNW 8.1 mph - N/A   Clear
4:53 PM 84.9 °F 92.1 °F 73.9 °F 69% 29.85 in 10.0 mi NNW 5.8 mph - N/A   Scattered Clouds
5:53 PM 84.0 °F 91.2 °F 73.9 °F 72% 29.85 in 10.0 mi NNW 9.2 mph - N/A   Clear
6:53 PM 84.0 °F 91.9 °F 75.0 °F 74% 29.85 in 10.0 mi NW 8.1 mph - N/A   Clear
7:53 PM 82.9 °F 90.2 °F 75.0 °F 77% 29.87 in 10.0 mi NNW 4.6 mph - N/A   Clear
8:53 PM 82.0 °F 88.6 °F 75.0 °F 79% 29.88 in 10.0 mi NW 4.6 mph - N/A   Clear
9:53 PM 82.0 °F 88.6 °F 75.0 °F 79% 29.89 in 10.0 mi NNW 4.6 mph - N/A   Clear
10:53 PM 82.0 °F 88.6 °F 75.0 °F 79% 29.90 in 10.0 mi NNW 4.6 mph - N/A   Clear
11:53 PM 81.0 °F 86.7 °F 75.0 °F 82% 29.93 in 10.0 mi Calm Calm - N/A   Scattered Clouds